Voltar ao catálogo

HORIZONS 1

GALAXY 13

AtivoComunicaçõesGEO
NORAD 27954·PAYLOAD·🇺🇸 United States

Lançado Oct 1, 2003 de Sea Launch Platform

Loading…

TLE

AtualizadoSource: CelesTrak SupGP

Época: Sep 14, 2026, 00:00 UTC

1 27954C 03044A   26257.00000000  .00000223  00000+0  00000+0 0  2572
2 27954   1.6428  82.5863 0001837  81.1563  39.2589  1.00273364    18

Acompanhe HORIZONS 1 em tempo real com AllMySat

Download on the App Store